SCP
0 0 0 0 0 0 0 0 0 0 0 0 0 0 0 0 0 0 0 0 0 0 0 0 0 0 0 -0 0 0 0 0 0 -0 0 0 0 0 0 0 -0 0 0 0
0 0 0 0 0 0 0 0 0 0 0 0 0 0 0 0 0 0 0 0 0 -0 0 0 0 0 0 0 0 -0 0 0 0 0 0 0 -0 0 0 -0 0 0 0 0
0 0 0 0 0 0 0 0 0 0 0 0 0 0 0 0 0 0 0 0 -0 -0 0 0 0 0 0 0 0 -0 0 -0 -0 0 0 0 0 -0 0 0 0 0 0 0
0 0 0 0 0 0 0 0 0 0 0 0 0 0 0 0 0 0 0 0 0 -0 0 -0 -0 0 0 0 0 -0 -0 -0 0 -0 -0 0 0 -0 -0 0 0 0 0 0
0 0 0 0 0 0 0 0 0 0 0 0 0 0 0 0 0 0 0 0 -0 0 -0 0 -0 -0 0 0 0 -0 0 0 -0 -0 -0 -0 -0 0 0 0 0 0 0 0
0 0 0 0 0 0 0 0 0 0 0 0 0 0 0 0 -0 0 0 -0 -0 -0 -0 -0 -0 0 -0 0 0 0 0 -0 0 -0 -0 -0 0 -0 0 -0 -0 -0 0 0
0 0 0 0 0 0 0 0 0 0 0 0 0 0 0 0 0 0 -0 -0 -0 -0 -0 -0 -0 0 0 0 0 0 0 0 -0 -0 -0 0 0 0 0 0 0 -0 0 0
0 0 0 0 0 0 0 0 0 0 0 0 0 0 0 0 0 0 -0 -0 -0 -0 -0 0 0 0 0 0 0 0 0 0 0 0 0 -0 -0 -0 0 -0 -0 0 0 0
0 0 0 0 0 0 0 0 0 0 0 0 0 0 0 0 0 0 0 0 -0 -0 0 0 0 0 0 0 0 0 0 0 0 0 0 0 0 0 0 0 -0 0 0 0
0 0 0 0 0 0 0 0 0 0 0 0 0 0 0 0 0 0 0 -0 -0 0 -0 0 0 -0 0 0 0 0 0 0 0 0 0 0 0 0 0 -0 0 0 0 0
0 0 0 0 0 0 0 0 0 0 0 0 0 0 0 0 0 0 0 -0 0 0 -0 -0 -0 0 0 0 0 0 0 0 0 0 0 0 0 0 -0 -0 -0 0 0 0
0 0 0 0 0 0 0 0 0 0 0 0 0 0 -0 -0 -0 0 0 0 0 0 -0 -0 -0 0 0 0 0 0 0 0 0 0 0 0 0 0 -0 -0 -0 0 0 0
0 0 0 0 0 0 0 0 0 0 0 0 0 0 0 0 0 0 0 0 0 0 0 0 -0 0 0 0 0 0 0 0 0 0 0 0 -0 -0 -0 -0 0 0 0 0
0 0 0 0 0 0 0 0 0 0 0 0 0 0 0 0 0 -0 -0 -0 0 -0 0 0 0 0 0 0 0 0 0 0 0 0 0 -0 -0 -0 0 0 0 0 0 0
0 0 0 0 0 0 0 0 0 0 0 0 0 0 0 0 0 0 -0 -0 -0 0 0 0 -0 -0 -0 0 0 0 0 0 0 0 -0 0 0 -0 0 0 0 0 0 0
0 0 0 0 0 0 0 0 0 0 0 0 0 0 0 0 0 0 -0 -0 -0 0 0 0 -0 -0 -0 0 0 0 0 0 -0 -0 0 0 -0 0 0 0 0 0 0 0
0 0 0 0 0 0 0 0 0 0 0 0 0 0 0 0 0 0 0 0 0 0 0 0 -0 -0 0 0 0 -0 -0 0 -0 0 0 0 -0 0 0 0 0 0 0 0
0 0 0 0 0 0 0 0 0 0 0 0 0 0 0 0 0 0 0 0 0 0 0 0 -0 -0 -0 -0 -0 -0 -0 -0 -0 0 0 0 0 -0 0 0 0 0 0 0
0 0 0 0 0 0 0 0 0 0 0 0 0 0 0 0 0 0 0 0 0 0 0 0 0 0 0 -0 -0 -0 -0 -0 -0 -0 0 -0 -0 -0 0 0 0 0 0 0
0 0 0 0 0 0 0 0 0 0 0 0 0 0 0 -0 -0 0 0 0 0 0 -0 0 0 -0 -0 -0 0 -0 -0 0 -0 0 0 0 -0 0 0 0 0 0 0 0
0 0 0 0 0 0 0 0 0 0 0 0 0 0 0 -0 -0 -0 0 0 0 0 0 -0 -0 -0 -0 0 -0 0 -0 -0 -0 -0 -0 -0 0 0 0 0 0 0 0 0
0 0 0 0 0 0 0 0 0 0 0 0 0 0 0 0 -0 0 0 0 0 -0 0 -0 0 0 0 0 0 0 -0 -0 0 -0 -0 0 0 0 0 0 0 0 0 0
0 0 0 0 0 0 0 0 0 0 0 0 0 0 0 0 0 0 -0 0 -0 -0 -0 -0 -0 0 0 -0 0 0 0 -0 -0 0 -0 0 0 0 0 0 0 0 0 0
0 0 0 0 0 0 0 0 0 0 0 -0 0 0 0 0 0 0 0 0 -0 -0 -0 -0 0 0 0 -0 0 0 0 0 0 0 0 0 -0 0 0 0 0 0 0 0
0 0 0 0 0 0 0 0 0 0 0 0 0 0 -0 -0 0 -0 -0 -0 0 0 -0 0 0 -0 0 -0 -0 0 0 0 -0 0 -0 0 0 -0 0 0 0 0 0 0
0 0 0 0 0 0 0 -0 0 0 0 0 0 0 0 0 0 -0 -0 0 0 0 0 0 0 0 0 -0 0 -0 0 -0 -0 0 -0 0 0 0 0 0 0 0 0 0
0 0 0 0 0 0 0 0 0 0 0 0 0 0 0 0 0 0 0 0 0 0 0 0 0 0 0 -0 -0 -0 0 0 0 0 -0 -0 -0 -0 0 0 0 0 0 0
Wind_Speed_500mb
56 57 61 63 66 67 48 15 7 8 16 12 4 8 15 17 10 8 16 16 20 22 24 22 27 24 14 31 28 31 26 13 23 31 19 11 16 22 10 10 40 31 21 5
53 56 62 59 58 52 49 22 9 10 10 4 11 13 14 14 14 9 8 12 13 27 27 16 17 24 17 34 31 12 16 10 20 19 15 9 15 29 26 28 28 28 25 8
52 58 62 60 50 37 31 12 6 1 8 7 11 19 9 10 7 22 15 20 28 22 23 25 20 36 23 32 37 33 23 27 30 26 36 29 23 24 24 25 21 27 31 40
58 61 60 57 40 21 16 7 5 7 7 6 19 16 16 17 12 7 23 12 16 24 14 36 44 36 33 36 48 49 10 27 37 37 38 33 37 37 33 34 37 36 36 47
61 58 50 38 24 17 9 10 10 10 30 14 16 2 6 15 12 22 24 27 25 29 36 37 52 48 39 16 8 21 8 11 27 40 36 37 43 43 42 41 40 42 44 53
61 52 35 32 25 21 7 7 10 5 17 9 10 9 13 27 32 22 19 23 34 39 42 51 64 68 67 37 12 14 7 8 18 26 21 26 31 33 39 44 42 42 42 47
53 46 31 33 20 12 18 22 17 3 10 10 15 19 29 28 32 33 51 38 31 32 57 66 59 46 35 22 17 24 10 17 19 12 4 19 23 3 18 25 27 30 43 45
45 37 35 31 18 11 19 22 16 8 7 21 30 5 26 34 38 32 38 31 29 44 39 18 20 6 4 8 8 15 24 11 10 9 18 28 38 15 8 5 25 32 42 39
50 44 39 31 17 12 17 22 26 21 10 7 14 43 28 13 14 22 19 28 32 21 8 7 8 8 13 10 13 6 16 24 13 7 8 10 6 11 6 20 33 15 32 36
46 41 38 30 20 14 14 22 26 26 16 30 15 12 16 8 11 9 31 18 16 6 7 5 7 8 12 8 13 10 4 7 24 24 12 12 4 8 16 11 9 30 28 30
43 40 38 30 21 15 19 21 24 28 27 49 47 47 39 21 15 5 17 22 3 13 10 5 6 6 8 6 13 14 6 7 4 12 11 10 9 15 9 27 55 50 41 36
43 40 38 35 23 14 16 29 23 26 34 48 59 62 59 59 54 35 10 13 22 9 5 5 7 6 6 15 7 4 6 5 6 6 7 23 41 27 51 75 73 65 38 38
43 40 37 32 26 21 20 28 29 34 33 54 21 9 10 17 16 25 19 19 13 7 6 4 6 9 4 6 8 8 7 8 6 7 3 26 41 30 48 56 7 21 31 30
43 40 36 32 29 25 18 28 26 26 19 11 9 13 33 26 30 35 50 27 10 9 7 9 6 7 8 7 14 15 8 5 8 10 22 27 13 41 51 46 30 24 18 16
44 40 39 36 32 28 25 32 37 33 25 10 27 50 9 9 13 26 38 45 35 17 7 6 6 11 5 9 10 14 8 6 5 7 36 19 22 36 50 47 34 32 27 22
46 43 41 37 34 26 12 9 7 6 29 9 7 16 13 9 10 18 29 31 28 17 9 8 10 20 3 6 8 9 17 9 23 17 34 23 26 33 36 38 37 32 27 25
43 43 44 32 26 22 19 8 10 12 17 8 10 11 6 10 10 10 14 23 16 18 10 12 13 8 11 6 9 17 17 16 24 23 26 23 34 37 36 31 34 26 28 34
44 44 33 20 13 13 22 17 26 18 17 9 6 9 12 11 11 9 16 13 16 15 10 12 10 5 10 8 5 11 16 17 18 24 25 23 30 34 35 28 27 30 32 40
44 36 17 8 4 5 6 9 16 19 22 7 7 5 7 3 16 7 10 12 7 10 6 6 3 8 10 4 4 7 14 16 19 21 27 29 31 33 34 32 30 29 33 42
37 16 5 6 7 13 16 6 8 14 17 14 10 22 12 18 9 6 5 9 6 6 9 8 7 8 12 8 1 5 8 13 19 25 28 33 35 35 36 34 27 27 27 38
26 15 7 17 17 8 10 9 12 15 8 13 14 24 14 11 11 7 5 5 4 6 5 5 3 5 2 12 9 7 7 10 15 16 17 23 28 32 31 28 26 23 25 27
31 29 33 16 4 12 9 7 7 9 7 11 9 4 12 11 10 8 5 6 4 5 3 6 5 2 14 15 11 10 9 10 15 15 16 23 30 30 29 29 22 18 20 25
15 6 6 6 6 8 10 9 8 7 2 13 3 4 5 8 15 9 6 7 5 5 5 4 4 8 18 17 12 10 8 9 15 15 15 21 27 32 33 31 25 19 22 23
7 7 8 7 5 7 8 13 12 13 8 13 18 8 6 6 8 4 7 2 2 5 5 3 5 2 17 20 16 13 8 7 11 14 14 21 25 28 31 32 32 26 25 21
8 7 7 5 18 25 25 22 23 20 21 21 20 18 12 5 4 6 5 7 6 6 3 8 12 8 17 24 21 13 13 8 6 11 13 18 23 24 29 31 31 33 29 28
5 7 10 17 25 23 21 17 13 25 27 25 15 9 5 8 1 5 9 3 5 3 8 12 10 4 16 23 22 16 13 14 8 8 11 13 20 22 24 28 30 33 35 37
6 6 18 19 18 26 28 30 28 25 25 10 9 7 5 1 3 4 4 3 6 8 18 11 10 8 9 17 18 22 18 16 16 11 10 12 16 17 18 25 27 29 34 37
Wind_Direction_500mb
346 345 351 352 354 352 0 352 260 307 343 244 249 288 340 326 290 248 276 281 278 288 309 296 297 286 279 311 311 301 309 291 285 287 284 213 172 227 228 251 224 250 298 33
340 344 346 346 347 353 350 334 293 324 6 348 330 326 297 273 284 281 299 285 287 306 292 294 293 284 281 297 295 294 340 255 300 292 167 215 218 239 209 250 254 266 242 160
341 340 339 336 341 352 352 332 300 55 36 12 330 337 317 301 265 282 263 279 295 287 301 275 275 285 287 294 287 295 294 266 263 276 298 321 300 284 276 269 280 269 252 263
338 337 338 336 342 1 10 345 39 357 310 324 324 300 285 297 312 281 290 287 281 296 285 296 283 286 304 289 276 275 268 263 266 273 281 284 281 275 269 260 262 262 262 271
337 335 342 357 356 20 30 6 351 326 291 303 304 307 297 305 330 316 286 288 300 307 292 288 289 292 297 261 253 284 208 264 282 274 268 270 270 268 264 263 259 259 264 266
337 339 340 346 350 11 345 321 326 287 304 302 312 302 333 317 320 308 279 289 299 292 287 294 290 289 282 260 217 234 242 263 269 255 264 274 273 266 258 252 249 242 252 262
340 345 341 351 350 336 314 316 304 281 288 314 302 292 298 303 310 295 297 295 283 298 303 301 288 270 260 261 261 217 221 224 252 281 272 255 254 46 297 297 275 258 253 259
336 334 332 343 339 315 293 299 294 256 270 287 298 300 309 301 300 298 300 294 308 312 307 305 313 332 229 182 198 211 218 211 265 242 227 266 285 294 351 2 285 285 262 257
331 327 327 333 323 303 300 283 286 253 283 256 316 310 299 291 305 308 310 317 314 309 311 318 319 335 336 318 336 144 207 233 257 260 248 256 24 101 28 296 280 305 255 255
327 325 324 327 326 273 288 286 280 279 262 276 288 279 310 260 270 276 300 335 315 290 321 323 331 314 346 306 315 331 225 216 231 242 254 267 279 30 337 239 355 341 342 329
327 324 321 322 318 280 269 275 280 271 273 282 274 273 265 252 231 247 309 315 210 288 340 353 9 290 322 292 285 312 290 305 251 237 244 260 46 323 231 317 305 303 299 297
328 325 320 318 310 294 273 274 288 292 267 267 284 278 266 255 254 259 243 281 314 288 307 325 325 295 293 313 298 25 291 234 300 261 308 294 296 254 274 272 262 270 271 282
327 327 324 321 314 305 236 266 280 291 283 300 275 282 273 247 225 226 218 239 232 245 257 286 286 268 281 287 286 286 281 113 242 315 289 278 309 305 324 343 327 247 277 280
329 329 328 323 319 311 293 264 264 269 281 281 287 298 292 271 252 232 225 235 269 292 285 244 258 264 180 270 290 284 306 248 285 252 278 309 354 353 342 348 22 28 18 4
323 324 322 314 305 299 293 283 272 246 227 285 295 309 293 259 240 224 223 226 243 269 274 234 241 256 280 252 262 265 335 298 284 319 327 1 335 345 345 350 7 14 12 5
323 321 319 311 300 295 292 304 240 248 216 260 286 310 273 259 251 226 213 218 224 217 231 243 250 253 178 285 277 315 340 305 324 324 349 359 349 345 346 349 356 4 13 25
325 321 317 308 288 262 211 241 207 297 189 246 279 281 222 230 227 209 199 201 207 213 234 222 243 272 173 260 270 360 350 335 349 357 350 357 358 359 352 0 3 1 27 36
325 322 317 309 299 249 258 259 251 250 203 242 264 271 266 197 228 216 184 196 204 216 249 244 261 301 215 261 346 351 354 349 9 5 4 16 359 5 2 6 16 22 23 29
330 325 314 294 266 243 257 229 270 260 211 257 238 263 307 267 263 261 200 207 222 203 229 260 203 235 227 300 19 24 3 12 5 11 15 15 12 7 14 5 17 31 18 28
336 342 317 252 225 248 292 262 220 190 209 230 248 245 251 303 286 260 266 190 241 244 201 192 231 270 285 233 172 71 26 29 19 15 23 9 10 11 12 17 14 32 25 28
357 339 287 283 277 278 230 234 211 185 226 218 233 223 230 250 242 283 281 299 256 267 107 272 319 258 134 162 165 121 95 68 43 35 26 16 10 8 17 22 13 22 40 34
313 294 291 302 270 231 244 223 216 235 255 190 250 184 216 256 236 250 210 249 241 272 25 262 257 119 142 161 142 127 106 79 56 49 39 23 17 24 20 29 32 30 52 41
308 305 266 243 226 247 229 215 210 220 327 29 355 236 253 230 220 242 246 234 250 326 252 264 299 69 152 156 159 147 119 80 71 72 50 35 26 26 28 33 38 48 62 60
297 286 276 245 214 258 283 330 336 339 327 310 298 271 193 286 220 216 239 103 238 250 235 241 36 326 168 164 167 158 147 102 70 72 58 49 42 38 36 36 37 47 57 70
274 275 263 266 341 316 317 330 328 329 320 320 315 289 185 196 231 201 205 202 233 218 279 43 17 323 181 172 170 168 153 145 94 75 63 51 52 49 46 42 46 53 57 69
270 263 289 324 315 330 323 339 341 330 328 306 271 273 229 241 268 184 217 217 230 33 350 351 357 324 194 189 179 171 169 149 139 104 96 70 60 66 63 56 52 54 57 61
275 275 305 296 304 291 309 322 325 332 312 306 303 254 278 17 281 263 266 257 339 325 348 21 14 356 187 192 186 173 180 175 152 143 128 105 85 79 74 72 69 66 66 64
Wind_Speed_850mb
56 57 61 63 66 67 48 15 7 8 16 12 4 8 15 17 10 8 16 16 20 22 24 22 27 24 14 31 28 31 26 13 23 31 19 11 16 22 10 10 40 31 21 5
53 56 62 59 58 52 49 22 9 10 10 4 11 13 14 14 14 9 8 12 13 27 27 16 17 24 17 34 31 12 16 10 20 19 15 9 15 29 26 28 28 28 25 8
52 58 62 60 50 37 31 12 6 1 8 7 11 19 9 10 7 22 15 20 28 22 23 25 20 36 23 32 37 33 23 27 30 26 36 29 23 24 24 25 21 27 31 40
58 61 60 57 40 21 16 7 5 7 7 6 19 16 16 17 12 7 23 12 16 24 14 36 44 36 33 36 48 49 10 27 37 37 38 33 37 37 33 34 37 36 36 47
61 58 50 38 24 17 9 10 10 10 30 14 16 2 6 15 12 22 24 27 25 29 36 37 52 48 39 16 8 21 8 11 27 40 36 37 43 43 42 41 40 42 44 53
61 52 35 32 25 21 7 7 10 5 17 9 10 9 13 27 32 22 19 23 34 39 42 51 64 68 67 37 12 14 7 8 18 26 21 26 31 33 39 44 42 42 42 47
53 46 31 33 20 12 18 22 17 3 10 10 15 19 29 28 32 33 51 38 31 32 57 66 59 46 35 22 17 24 10 17 19 12 4 19 23 3 18 25 27 30 43 45
45 37 35 31 18 11 19 22 16 8 7 21 30 5 26 34 38 32 38 31 29 44 39 18 20 6 4 8 8 15 24 11 10 9 18 28 38 15 8 5 25 32 42 39
50 44 39 31 17 12 17 22 26 21 10 7 14 43 28 13 14 22 19 28 32 21 8 7 8 8 13 10 13 6 16 24 13 7 8 10 6 11 6 20 33 15 32 36
46 41 38 30 20 14 14 22 26 26 16 30 15 12 16 8 11 9 31 18 16 6 7 5 7 8 12 8 13 10 4 7 24 24 12 12 4 8 16 11 9 30 28 30
43 40 38 30 21 15 19 21 24 28 27 49 47 47 39 21 15 5 17 22 3 13 10 5 6 6 8 6 13 14 6 7 4 12 11 10 9 15 9 27 55 50 41 36
43 40 38 35 23 14 16 29 23 26 34 48 59 62 59 59 54 35 10 13 22 9 5 5 7 6 6 15 7 4 6 5 6 6 7 23 41 27 51 75 73 65 38 38
43 40 37 32 26 21 20 28 29 34 33 54 21 9 10 17 16 25 19 19 13 7 6 4 6 9 4 6 8 8 7 8 6 7 3 26 41 30 48 56 7 21 31 30
43 40 36 32 29 25 18 28 26 26 19 11 9 13 33 26 30 35 50 27 10 9 7 9 6 7 8 7 14 15 8 5 8 10 22 27 13 41 51 46 30 24 18 16
44 40 39 36 32 28 25 32 37 33 25 10 27 50 9 9 13 26 38 45 35 17 7 6 6 11 5 9 10 14 8 6 5 7 36 19 22 36 50 47 34 32 27 22
46 43 41 37 34 26 12 9 7 6 29 9 7 16 13 9 10 18 29 31 28 17 9 8 10 20 3 6 8 9 17 9 23 17 34 23 26 33 36 38 37 32 27 25
43 43 44 32 26 22 19 8 10 12 17 8 10 11 6 10 10 10 14 23 16 18 10 12 13 8 11 6 9 17 17 16 24 23 26 23 34 37 36 31 34 26 28 34
44 44 33 20 13 13 22 17 26 18 17 9 6 9 12 11 11 9 16 13 16 15 10 12 10 5 10 8 5 11 16 17 18 24 25 23 30 34 35 28 27 30 32 40
44 36 17 8 4 5 6 9 16 19 22 7 7 5 7 3 16 7 10 12 7 10 6 6 3 8 10 4 4 7 14 16 19 21 27 29 31 33 34 32 30 29 33 42
37 16 5 6 7 13 16 6 8 14 17 14 10 22 12 18 9 6 5 9 6 6 9 8 7 8 12 8 1 5 8 13 19 25 28 33 35 35 36 34 27 27 27 38
26 15 7 17 17 8 10 9 12 15 8 13 14 24 14 11 11 7 5 5 4 6 5 5 3 5 2 12 9 7 7 10 15 16 17 23 28 32 31 28 26 23 25 27
31 29 33 16 4 12 9 7 7 9 7 11 9 4 12 11 10 8 5 6 4 5 3 6 5 2 14 15 11 10 9 10 15 15 16 23 30 30 29 29 22 18 20 25
15 6 6 6 6 8 10 9 8 7 2 13 3 4 5 8 15 9 6 7 5 5 5 4 4 8 18 17 12 10 8 9 15 15 15 21 27 32 33 31 25 19 22 23
7 7 8 7 5 7 8 13 12 13 8 13 18 8 6 6 8 4 7 2 2 5 5 3 5 2 17 20 16 13 8 7 11 14 14 21 25 28 31 32 32 26 25 21
8 7 7 5 18 25 25 22 23 20 21 21 20 18 12 5 4 6 5 7 6 6 3 8 12 8 17 24 21 13 13 8 6 11 13 18 23 24 29 31 31 33 29 28
5 7 10 17 25 23 21 17 13 25 27 25 15 9 5 8 1 5 9 3 5 3 8 12 10 4 16 23 22 16 13 14 8 8 11 13 20 22 24 28 30 33 35 37
6 6 18 19 18 26 28 30 28 25 25 10 9 7 5 1 3 4 4 3 6 8 18 11 10 8 9 17 18 22 18 16 16 11 10 12 16 17 18 25 27 29 34 37
Wind_Direction_850mb
346 345 351 352 354 352 0 352 260 307 343 244 249 288 340 326 290 248 276 281 278 288 309 296 297 286 279 311 311 301 309 291 285 287 284 213 172 227 228 251 224 250 298 33
340 344 346 346 347 353 350 334 293 324 6 348 330 326 297 273 284 281 299 285 287 306 292 294 293 284 281 297 295 294 340 255 300 292 167 215 218 239 209 250 254 266 242 160
341 340 339 336 341 352 352 332 300 55 36 12 330 337 317 301 265 282 263 279 295 287 301 275 275 285 287 294 287 295 294 266 263 276 298 321 300 284 276 269 280 269 252 263
338 337 338 336 342 1 10 345 39 357 310 324 324 300 285 297 312 281 290 287 281 296 285 296 283 286 304 289 276 275 268 263 266 273 281 284 281 275 269 260 262 262 262 271
337 335 342 357 356 20 30 6 351 326 291 303 304 307 297 305 330 316 286 288 300 307 292 288 289 292 297 261 253 284 208 264 282 274 268 270 270 268 264 263 259 259 264 266
337 339 340 346 350 11 345 321 326 287 304 302 312 302 333 317 320 308 279 289 299 292 287 294 290 289 282 260 217 234 242 263 269 255 264 274 273 266 258 252 249 242 252 262
340 345 341 351 350 336 314 316 304 281 288 314 302 292 298 303 310 295 297 295 283 298 303 301 288 270 260 261 261 217 221 224 252 281 272 255 254 46 297 297 275 258 253 259
336 334 332 343 339 315 293 299 294 256 270 287 298 300 309 301 300 298 300 294 308 312 307 305 313 332 229 182 198 211 218 211 265 242 227 266 285 294 351 2 285 285 262 257
331 327 327 333 323 303 300 283 286 253 283 256 316 310 299 291 305 308 310 317 314 309 311 318 319 335 336 318 336 144 207 233 257 260 248 256 24 101 28 296 280 305 255 255
327 325 324 327 326 273 288 286 280 279 262 276 288 279 310 260 270 276 300 335 315 290 321 323 331 314 346 306 315 331 225 216 231 242 254 267 279 30 337 239 355 341 342 329
327 324 321 322 318 280 269 275 280 271 273 282 274 273 265 252 231 247 309 315 210 288 340 353 9 290 322 292 285 312 290 305 251 237 244 260 46 323 231 317 305 303 299 297
328 325 320 318 310 294 273 274 288 292 267 267 284 278 266 255 254 259 243 281 314 288 307 325 325 295 293 313 298 25 291 234 300 261 308 294 296 254 274 272 262 270 271 282
327 327 324 321 314 305 236 266 280 291 283 300 275 282 273 247 225 226 218 239 232 245 257 286 286 268 281 287 286 286 281 113 242 315 289 278 309 305 324 343 327 247 277 280
329 329 328 323 319 311 293 264 264 269 281 281 287 298 292 271 252 232 225 235 269 292 285 244 258 264 180 270 290 284 306 248 285 252 278 309 354 353 342 348 22 28 18 4
323 324 322 314 305 299 293 283 272 246 227 285 295 309 293 259 240 224 223 226 243 269 274 234 241 256 280 252 262 265 335 298 284 319 327 1 335 345 345 350 7 14 12 5
323 321 319 311 300 295 292 304 240 248 216 260 286 310 273 259 251 226 213 218 224 217 231 243 250 253 178 285 277 315 340 305 324 324 349 359 349 345 346 349 356 4 13 25
325 321 317 308 288 262 211 241 207 297 189 246 279 281 222 230 227 209 199 201 207 213 234 222 243 272 173 260 270 360 350 335 349 357 350 357 358 359 352 0 3 1 27 36
325 322 317 309 299 249 258 259 251 250 203 242 264 271 266 197 228 216 184 196 204 216 249 244 261 301 215 261 346 351 354 349 9 5 4 16 359 5 2 6 16 22 23 29
330 325 314 294 266 243 257 229 270 260 211 257 238 263 307 267 263 261 200 207 222 203 229 260 203 235 227 300 19 24 3 12 5 11 15 15 12 7 14 5 17 31 18 28
336 342 317 252 225 248 292 262 220 190 209 230 248 245 251 303 286 260 266 190 241 244 201 192 231 270 285 233 172 71 26 29 19 15 23 9 10 11 12 17 14 32 25 28
357 339 287 283 277 278 230 234 211 185 226 218 233 223 230 250 242 283 281 299 256 267 107 272 319 258 134 162 165 121 95 68 43 35 26 16 10 8 17 22 13 22 40 34
313 294 291 302 270 231 244 223 216 235 255 190 250 184 216 256 236 250 210 249 241 272 25 262 257 119 142 161 142 127 106 79 56 49 39 23 17 24 20 29 32 30 52 41
308 305 266 243 226 247 229 215 210 220 327 29 355 236 253 230 220 242 246 234 250 326 252 264 299 69 152 156 159 147 119 80 71 72 50 35 26 26 28 33 38 48 62 60
297 286 276 245 214 258 283 330 336 339 327 310 298 271 193 286 220 216 239 103 238 250 235 241 36 326 168 164 167 158 147 102 70 72 58 49 42 38 36 36 37 47 57 70
274 275 263 266 341 316 317 330 328 329 320 320 315 289 185 196 231 201 205 202 233 218 279 43 17 323 181 172 170 168 153 145 94 75 63 51 52 49 46 42 46 53 57 69
270 263 289 324 315 330 323 339 341 330 328 306 271 273 229 241 268 184 217 217 230 33 350 351 357 324 194 189 179 171 169 149 139 104 96 70 60 66 63 56 52 54 57 61
275 275 305 296 304 291 309 322 325 332 312 306 303 254 278 17 281 263 266 257 339 325 348 21 14 356 187 192 186 173 180 175 152 143 128 105 85 79 74 72 69 66 66 64